Flag for U.S.A. Weather past 2 weeks in Petersburg, Indiana, U.S.A.

Now
59 °F

More clouds than sun.


Feels Like: 58 °F
Forecast: 53 / 69 °F
Wind: 6 mph from South

Location: Huntingburg Airport

Current Time: Apr 24, 2015 at 10:12:07 PM

Latest Report: Apr 24, 2015 at 8:55 PM


Visibility: 10 mi

Pressure: 29.90 "Hg

Humidity: 39%

Dew point: 34 °F

Location of PetersburgLocation

Historic Weather in Petersburg — Graph

°F

Petersburg temperature yesterday

Maximum temperature yesterday: 61 °F (at 3:35 PM)
Minimum temperature yesterday: 37 °F (at 3:35 AM)
Average temperature yesterday: 49 °F

Past Weeks' High & Low Weather Summary

 TemperatureHumidityPressure
High81 °F (Apr 18, 4:55 PM)94% (Apr 18, 4:35 AM)30.30 "Hg (Apr 18, 4:35 AM)
Low34 °F (Apr 24, 5:35 AM)23% (Apr 12, 3:15 PM)29.43 "Hg (Apr 19, 7:35 PM)
Average59 °F60%29.99 "Hg
* Reported Apr 9 8:15 PM — Apr 24 8:35 PM, Petersburg, Weather by CustomWeather, © 2015

Note: Actual official high and low records may vary slightly from our data, if they occured in-between our weather recording intervals... More about our weather records

Advertising

Petersburg weather history for previous 24 hours

 ConditionsComfort  
Time TempWeatherWind HumidityBarometerVisibility
8:35 PM
Fri, Apr 24
59 °FMore clouds than sun.7 mph39%29.92 "Hg10 mi
8:15 PM61 °FOvercast.7 mph34%29.92 "Hg10 mi
7:35 PM61 °FMostly cloudy.6 mph31%29.93 "Hg10 mi
7:15 PM61 °FOvercast.9 mph34%29.92 "Hg10 mi
6:55 PM63 °FOvercast.6 mph30%29.94 "Hg10 mi
6:35 PM63 °FOvercast.7 mph30%29.94 "Hg10 mi
6:15 PM63 °FOvercast.8 mph30%29.94 "Hg10 mi
5:35 PM63 °FMostly cloudy.9 mph30%29.96 "Hg10 mi
5:15 PM64 °FOvercast.7 mph26%29.96 "Hg10 mi
4:55 PM64 °FOvercast.8 mph28%29.97 "Hg10 mi
4:35 PM64 °FBroken clouds.12 mph28%29.97 "Hg10 mi
4:15 PM64 °FScattered clouds.8 mph28%29.98 "Hg10 mi
3:55 PM63 °FPassing clouds.12 mph30%29.98 "Hg10 mi
3:35 PM63 °FSunny.10 mph30%29.99 "Hg10 mi
3:15 PM63 °FSunny.8 mph30%30.01 "Hg10 mi
2:55 PM63 °FSunny.8 mph27%30.03 "Hg10 mi
2:35 PM63 °FSunny.7 mph27%30.04 "Hg10 mi
2:15 PM63 °FSunny.3 mph25%30.05 "Hg10 mi
1:55 PM61 °FSunny.No wind29%30.07 "Hg10 mi
1:35 PM61 °FSunny.8 mph27%30.08 "Hg10 mi
12:55 PM61 °FSunny.5 mph29%30.09 "Hg10 mi
12:35 PM57 °FSunny.8 mph31%30.09 "Hg10 mi
12:15 PM59 °FSunny.8 mph31%30.10 "Hg10 mi
11:55 AM57 °FSunny.8 mph33%30.11 "Hg10 mi
11:35 AM57 °FSunny.10 mph36%30.12 "Hg10 mi
11:15 AM55 °FSunny.7 mph36%30.13 "Hg10 mi
10:55 AM55 °FSunny.8 mph38%30.13 "Hg10 mi
10:35 AM55 °FSunny.6 mph41%30.13 "Hg10 mi
10:15 AM54 °FSunny.8 mph38%30.13 "Hg10 mi
9:55 AM52 °FSunny.5 mph44%30.13 "Hg10 mi
9:35 AM50 °FSunny.5 mph47%30.13 "Hg10 mi
9:15 AM46 °FSunny.6 mph57%30.13 "Hg10 mi
8:55 AM45 °FSunny.7 mph57%30.12 "Hg10 mi
8:35 AM37 °FSunny.6 mph75%30.13 "Hg10 mi
8:15 AM36 °FSunny.3 mph75%30.13 "Hg10 mi
7:55 AM34 °FClear.No wind75%30.13 "Hg10 mi
7:35 AM34 °FClear.No wind75%30.13 "Hg10 mi
7:15 AM34 °FClear.No wind70%30.12 "Hg10 mi
6:55 AM34 °FClear.No wind75%30.12 "Hg10 mi
6:35 AM34 °FClear.3 mph70%30.12 "Hg10 mi
6:15 AM34 °FClear.No wind75%30.11 "Hg10 mi
5:55 AM34 °FClear.No wind75%30.12 "Hg10 mi
5:35 AM34 °FClear.3 mph75%30.11 "Hg10 mi
5:15 AM36 °FClear.3 mph70%30.11 "Hg10 mi
4:55 AM36 °FClear.5 mph65%30.11 "Hg10 mi
4:35 AM36 °FClear.No wind70%30.10 "Hg10 mi
4:15 AM36 °FClear.No wind70%30.10 "Hg10 mi
3:55 AM36 °FClear.No wind70%30.11 "Hg10 mi
3:35 AM36 °FClear.No wind65%30.10 "Hg10 mi
3:15 AM37 °FClear.6 mph60%30.10 "Hg10 mi
2:55 AM37 °FClear.No wind65%30.09 "Hg10 mi
2:35 AM37 °FClear.3 mph65%30.10 "Hg10 mi
2:15 AM37 °FClear.No wind65%30.10 "Hg10 mi
1:55 AM37 °FClear.3 mph70%30.09 "Hg10 mi
1:35 AM37 °FClear.5 mph70%30.10 "Hg10 mi
1:15 AM37 °FClear.3 mph70%30.10 "Hg10 mi
12:55 AM39 °FClear.3 mph61%30.09 "Hg10 mi
12:35 AM39 °FClear.5 mph65%30.08 "Hg10 mi
12:15 AM37 °FClear.9 mph60%30.08 "Hg10 mi
11:55 PM
Thu, Apr 23
41 °FClear.5 mph61%30.09 "Hg10 mi
10:55 PM45 °FClear.3 mph49%30.10 "Hg10 mi
10:35 PM46 °FClear.No wind43%30.09 "Hg10 mi
10:15 PM46 °FClear.No wind46%30.08 "Hg10 mi
Weather by CustomWeather, © 2015

See weather overviewHow to use our weather pages